Change the Weather History Date:

Wednesday, June 6, 2012

  Actual Average (KLBF) Record (KLBF)
Temperature  
Mean Temperature 74 °F 65 °F  
Max Temperature 86 °F 78 °F 100 °F (1969)
Min Temperature 64 °F 51 °F 30 °F (1998)
Degree Days  
Heating Degree Days 0 3  
Month to date heating degree days 21  
Since 1 June heating degree days 21  
Since 1 July heating degree days 6656  
Cooling Degree Days 10 3  
Month to date cooling degree days 13  
Year to date cooling degree days 41  
Since 1 June cooling degree days 13  
Growing Degree Days 24 (Base 50)    
Moisture  
Dew Point 51 °F    
Average Humidity 46    
Maximum Humidity 66    
Minimum Humidity 24    
Precipitation  
Precipitation 0.00 in 0.13 in 2.32 in (2014)
Month to date precipitation 0.78  
Year to date precipitation 8.22  
Snow  
Snow 0.00 in 0.00 in 0.00 in ()
Month to date snowfall 0.0  
Since 1 June snowfall 0.0  
Since 1 July snowfall 28.5  
Snow Depth -    
Sea Level Pressure  
Sea Level Pressure 29.94 in    
Wind  
Wind Speed 11 mph (SSE)    
Max Wind Speed 23 mph    
Max Gust Speed 29 mph    
Visibility 10 miles    
Events      
T = Trace of Precipitation, MM = Missing Value Source: NWS Daily Summary

Daily Weather History Graph

Daily Weather History Graph

Search for Another Location

Airport or City:

Trip Planner

Search our weather history database for the weather conditions in past years. The results will help you decide how hot, cold, wet, or windy it might be!

Date:

Astronomy

Jun. 06, 2012 Rise Set
Actual Time 6:07 AM CDT 9:15 PM CDT
Civil Twilight 5:33 AM CDT 9:49 PM CDT
Nautical Twilight 4:49 AM CDT 10:32 PM CDT
Astronomical Twilight 3:57 AM CDT 11:24 PM CDT
Moon 11:26 PM CDT (6/6) 8:31 AM CDT (6/6)
Length of Visible Light 16h 15m
Length of Day
15h 07m
Waning Gibbous, 93% of the Moon is Illuminated
Jun 6
Waning Gibbous
Jun 11
Last Quarter
Jun 19
New
Jun 26
First Quarter
Jul 3
Full

Hourly Weather History & Observations

Time (CDT) Temp. Heat Index Dew Point Humidity Pressure Visibility Wind Dir Wind Speed Gust Speed Precip Events Conditions
12:15 AM 67.5 °F - 52.9 °F 59% 29.92 in 10.0 mi SE 6.9 mph - N/A   Clear
12:35 AM 65.8 °F - 53.1 °F 63% 29.92 in 10.0 mi SSE 6.9 mph - N/A   Clear
12:55 AM 65.5 °F - 53.2 °F 65% 29.92 in 10.0 mi SSE 6.9 mph - N/A   Clear
1:35 AM 66.6 °F - 53.2 °F 62% 29.92 in 10.0 mi SSE 9.2 mph - N/A   Clear
2:15 AM 68.0 °F - 53.1 °F 59% 29.92 in 10.0 mi South 9.2 mph - N/A   Clear
2:35 AM 67.6 °F - 53.1 °F 59% 29.92 in 10.0 mi South 12.7 mph - N/A   Clear
2:55 AM 67.1 °F - 53.1 °F 61% 29.93 in 10.0 mi SSE 9.2 mph - N/A   Clear
3:15 AM 67.1 °F - 52.7 °F 60% 29.93 in 10.0 mi South 10.4 mph - N/A   Clear
3:35 AM 67.1 °F - 52.3 °F 59% 29.92 in 10.0 mi SSE 10.4 mph - N/A   Clear
3:55 AM 65.8 °F - 52.3 °F 62% 29.92 in 10.0 mi SSE 10.4 mph - N/A   Clear
4:15 AM 65.7 °F - 52.0 °F 61% 29.92 in 10.0 mi SSE 11.5 mph 17.3 mph N/A   Clear
4:35 AM 65.3 °F - 51.8 °F 62% 29.92 in 10.0 mi SSE 11.5 mph - N/A   Clear
4:55 AM 64.9 °F - 51.8 °F 62% 29.92 in 10.0 mi South 11.5 mph - N/A   Clear
5:15 AM 64.9 °F - 51.8 °F 62% 29.92 in 10.0 mi South 10.4 mph - N/A   Clear
5:35 AM 64.2 °F - 51.8 °F 64% 29.92 in 10.0 mi SSE 11.5 mph - N/A   Clear
5:55 AM 64.8 °F - 52.2 °F 64% 29.93 in 10.0 mi South 13.8 mph - N/A   Clear
6:15 AM 64.6 °F - 52.3 °F 64% 29.93 in 10.0 mi South 12.7 mph - N/A   Clear
6:35 AM 64.6 °F - 52.7 °F 65% 29.93 in 10.0 mi South 10.4 mph - N/A   Clear
6:55 AM 64.8 °F - 53.1 °F 66% 29.94 in 10.0 mi South 10.4 mph - N/A   Clear
7:15 AM 65.5 °F - 53.6 °F 65% 29.94 in 10.0 mi SSE 10.4 mph - N/A   Clear
7:35 AM 67.1 °F - 53.8 °F 62% 29.94 in 10.0 mi South 12.7 mph - N/A   Clear
7:55 AM 69.1 °F - 54.0 °F 58% 29.94 in 10.0 mi South 13.8 mph 19.6 mph N/A   Clear
8:15 AM 70.9 °F - 54.3 °F 56% 29.94 in 10.0 mi South 11.5 mph 17.3 mph N/A   Clear
8:35 AM 72.0 °F - 54.5 °F 54% 29.95 in 10.0 mi South 15.0 mph 20.7 mph N/A   Clear
8:55 AM 72.9 °F - 54.9 °F 53% 29.95 in 10.0 mi South 11.5 mph - N/A   Clear
9:15 AM 73.8 °F - 55.0 °F 52% 29.96 in 10.0 mi SSW 16.1 mph 21.9 mph N/A   Clear
9:35 AM 75.7 °F - 55.4 °F 49% 29.96 in 10.0 mi South 13.8 mph - N/A   Clear
9:55 AM 76.3 °F - 55.0 °F 48% 29.96 in 10.0 mi SSW 13.8 mph - N/A   Clear
10:15 AM 77.5 °F - 54.9 °F 45% 29.96 in 10.0 mi South 15.0 mph - N/A   Clear
10:35 AM 78.4 °F - 54.5 °F 43% 29.96 in 10.0 mi SSW 13.8 mph 19.6 mph N/A   Clear
10:55 AM 79.3 °F - 54.5 °F 42% 29.96 in 10.0 mi South 16.1 mph 19.6 mph N/A   Clear
11:15 AM 80.2 °F 80.1 °F 54.0 °F 40% 29.96 in 10.0 mi South 11.5 mph 20.7 mph N/A   Clear
11:35 AM 81.5 °F 80.8 °F 53.8 °F 38% 29.95 in 10.0 mi South 12.7 mph 20.7 mph N/A   Clear
11:55 AM 81.1 °F - 51.8 °F 36% 29.95 in 10.0 mi South 18.4 mph 24.2 mph N/A   Clear
12:15 PM 81.5 °F - 52.2 °F 36% 29.95 in 10.0 mi South 12.7 mph 23.0 mph N/A   Clear
12:35 PM 82.6 °F - 51.8 °F 34% 29.95 in 10.0 mi South 16.1 mph 20.7 mph N/A   Clear
12:55 PM 83.7 °F - 51.1 °F 32% 29.95 in 10.0 mi South 16.1 mph 25.3 mph N/A   Clear
1:15 PM 82.9 °F - 51.8 °F 34% 29.95 in 10.0 mi SSE 13.8 mph 24.2 mph N/A   Clear
1:35 PM 82.6 °F - 51.3 °F 34% 29.95 in 10.0 mi SSE 15.0 mph 23.0 mph N/A   Clear
1:55 PM 84.0 °F - 51.1 °F 32% 29.95 in 10.0 mi South 16.1 mph 21.9 mph N/A   Clear
2:15 PM 84.2 °F - 50.0 °F 30% 29.95 in 10.0 mi SSE 17.3 mph 21.9 mph N/A   Clear
2:35 PM 84.2 °F - 49.5 °F 30% 29.95 in 10.0 mi SSE 15.0 mph 21.9 mph N/A   Clear
2:55 PM 84.9 °F - 50.2 °F 30% 29.95 in 10.0 mi South 15.0 mph 19.6 mph N/A   Clear
3:15 PM 85.5 °F - 48.6 °F 28% 29.95 in 10.0 mi South 16.1 mph 24.2 mph N/A   Clear
3:35 PM 84.7 °F - 47.3 °F 27% 29.95 in 10.0 mi SSE 17.3 mph 23.0 mph N/A   Clear
4:15 PM 84.6 °F - 45.3 °F 25% 29.94 in 10.0 mi South 18.4 mph 24.2 mph N/A   Clear
4:35 PM 85.1 °F - 44.6 °F 24% 29.94 in 10.0 mi SSE 15.0 mph 27.6 mph N/A   Clear
5:15 PM 84.9 °F - 44.4 °F 24% 29.93 in 10.0 mi SSE 18.4 mph 25.3 mph N/A   Clear
5:55 PM 84.9 °F - 44.6 °F 24% 29.93 in 10.0 mi SSE 20.7 mph 27.6 mph N/A   Clear
6:15 PM 84.6 °F - 44.4 °F 24% 29.93 in 10.0 mi SSE 18.4 mph 28.8 mph N/A   Clear
6:35 PM 84.2 °F - 46.6 °F 27% 29.92 in 10.0 mi SE 20.7 mph 27.6 mph N/A   Clear
7:15 PM 82.9 °F - 47.7 °F 29% 29.91 in 10.0 mi SSE 18.4 mph 25.3 mph N/A   Clear
7:35 PM 82.0 °F - 48.0 °F 30% 29.92 in 10.0 mi SE 23.0 mph 26.5 mph N/A   Clear
7:55 PM 80.6 °F - 46.8 °F 30% 29.93 in 10.0 mi SE 20.7 mph 25.3 mph N/A   Clear
8:15 PM 79.0 °F - 47.5 °F 33% 29.95 in 10.0 mi SSE 16.1 mph - N/A   Clear
8:35 PM 77.9 °F - 47.3 °F 34% 29.95 in 10.0 mi SE 11.5 mph - N/A   Clear
8:55 PM 76.5 °F - 47.7 °F 36% 29.96 in 10.0 mi SE 8.1 mph - N/A   Clear
9:35 PM 71.8 °F - 49.8 °F 46% 29.97 in 10.0 mi SE 3.5 mph - N/A   Clear
9:55 PM 69.8 °F - 50.5 °F 50% 29.98 in 10.0 mi SSE 4.6 mph - N/A   Clear
10:15 PM 70.0 °F - 50.9 °F 51% 29.99 in 10.0 mi SE 5.8 mph - N/A   Clear
10:35 PM 69.6 °F - 51.1 °F 52% 30.00 in 10.0 mi SE 4.6 mph - N/A   Clear
10:55 PM 68.0 °F - 51.3 °F 55% 30.01 in 10.0 mi SSE 3.5 mph - N/A   Clear
11:55 PM 66.6 °F - 51.8 °F 59% 30.03 in 10.0 mi SE 5.8 mph - N/A   Clear